Location: Central Falls
(41.8900°N, 71.3929°W)
Time: 15:44:13
(UTC+00:00)

Vanguard 1 - Pass Details

Date: 10 December 2023
Orbit: 653 x 3826 km, 34.3° (Epoch: 24 February)

Event Time Altitude Azimuth Distance (km) Brightness Sun altitude
Rises 20:34:03 0° 225° (SW) 4,530 16.0 5.4°
Reaches altitude 10° 20:36:41 10° 218° (SW) 3,870 15.1 5.0°
Maximum altitude 20:46:53 46° 149° (SSE) 2,998 12.7 3.5°
Drops below altitude 10° 21:04:25 10° 85° (E) 6,460 13.7 0.7°
Sets 21:10:24 0° 81° (E) 7,767 14.0 -0.2°
